Year,Month,Day,Hour,Minute,Value (Times are PST for temperature in C)
2016,04,08,00,00,10.80
2016,04,08,00,01,10.80
2016,04,08,00,02,10.80
2016,04,08,00,03,10.80
2016,04,08,00,04,10.80
2016,04,08,00,05,10.80
2016,04,08,00,06,10.80
2016,04,08,00,07,10.70
2016,04,08,00,08,10.70
2016,04,08,00,09,10.70
2016,04,08,00,10,10.70
2016,04,08,00,11,10.70
2016,04,08,00,12,10.70
2016,04,08,00,13,10.70
2016,04,08,00,14,10.70
2016,04,08,00,15,10.80
2016,04,08,00,16,10.80
2016,04,08,00,17,10.80
2016,04,08,00,18,10.80
2016,04,08,00,19,10.80
2016,04,08,00,20,10.80
2016,04,08,00,21,10.90
2016,04,08,00,22,10.90
2016,04,08,00,23,10.90
2016,04,08,00,24,10.90
2016,04,08,00,25,10.90
2016,04,08,00,26,10.80
2016,04,08,00,27,10.80
2016,04,08,00,28,10.90
2016,04,08,00,29,10.90
2016,04,08,00,30,10.90
2016,04,08,00,31,10.90
2016,04,08,00,32,10.90
2016,04,08,00,33,10.80
2016,04,08,00,34,10.80
2016,04,08,00,35,10.80
2016,04,08,00,36,10.80
2016,04,08,00,37,10.80
2016,04,08,00,38,10.80
2016,04,08,00,39,10.80
2016,04,08,00,40,10.80
2016,04,08,00,41,10.80
2016,04,08,00,42,10.80
2016,04,08,00,43,10.80
2016,04,08,00,44,10.80
2016,04,08,00,45,10.70
2016,04,08,00,46,10.70
2016,04,08,00,47,10.70
2016,04,08,00,48,10.70
2016,04,08,00,49,10.70
2016,04,08,00,50,10.70
2016,04,08,00,51,10.70
2016,04,08,00,52,10.70
2016,04,08,00,53,10.70
2016,04,08,00,54,10.70
2016,04,08,00,55,10.70
2016,04,08,00,56,10.70
2016,04,08,00,57,10.60
2016,04,08,00,58,10.50
2016,04,08,00,59,10.50
2016,04,08,01,00,10.40
2016,04,08,01,01,10.40
2016,04,08,01,02,10.40
2016,04,08,01,03,10.50
2016,04,08,01,04,10.60
2016,04,08,01,05,10.60
2016,04,08,01,06,10.70
2016,04,08,01,07,10.80
2016,04,08,01,08,10.90
2016,04,08,01,09,10.90
2016,04,08,01,10,11.00
2016,04,08,01,11,11.10
2016,04,08,01,12,11.20
2016,04,08,01,13,11.30
2016,04,08,01,14,11.40
2016,04,08,01,15,11.50
2016,04,08,01,16,11.60
2016,04,08,01,17,11.60
2016,04,08,01,18,11.60
2016,04,08,01,19,11.60
2016,04,08,01,20,11.70
2016,04,08,01,21,11.70
2016,04,08,01,22,11.70
2016,04,08,01,23,11.70
2016,04,08,01,24,11.80
2016,04,08,01,25,11.80
2016,04,08,01,26,11.80
2016,04,08,01,27,11.80
2016,04,08,01,28,11.80
2016,04,08,01,29,11.80
2016,04,08,01,30,11.80
2016,04,08,01,31,11.80
2016,04,08,01,32,11.80
2016,04,08,01,33,11.80
2016,04,08,01,34,11.80
2016,04,08,01,35,11.70
2016,04,08,01,36,11.70
2016,04,08,01,37,11.70
2016,04,08,01,38,11.60
2016,04,08,01,39,11.60
2016,04,08,01,40,11.50
2016,04,08,01,41,11.30
2016,04,08,01,42,11.30
2016,04,08,01,43,11.20
2016,04,08,01,44,11.20
2016,04,08,01,45,11.20
2016,04,08,01,46,11.10
2016,04,08,01,47,11.00
2016,04,08,01,48,10.90
2016,04,08,01,49,10.90
2016,04,08,01,50,10.90
2016,04,08,01,51,10.80
2016,04,08,01,52,10.80
2016,04,08,01,53,10.80
2016,04,08,01,54,10.80
2016,04,08,01,55,10.80
2016,04,08,01,56,10.80
2016,04,08,01,57,10.80
2016,04,08,01,58,10.80
2016,04,08,01,59,10.80
2016,04,08,02,00,10.90
2016,04,08,02,01,10.90
2016,04,08,02,02,10.90
2016,04,08,02,03,10.90
2016,04,08,02,04,10.90
2016,04,08,02,05,10.90
2016,04,08,02,06,10.90
2016,04,08,02,07,10.90
2016,04,08,02,08,10.90
2016,04,08,02,09,10.90
2016,04,08,02,10,10.90
2016,04,08,02,11,10.90
2016,04,08,02,12,10.90
2016,04,08,02,13,10.90
2016,04,08,02,14,10.90
2016,04,08,02,15,10.90
2016,04,08,02,16,11.00
2016,04,08,02,17,11.00
2016,04,08,02,18,11.00
2016,04,08,02,19,11.00
2016,04,08,02,20,11.00
2016,04,08,02,21,11.00
2016,04,08,02,22,11.00
2016,04,08,02,23,11.00
2016,04,08,02,24,11.00
2016,04,08,02,25,11.00
2016,04,08,02,26,11.00
2016,04,08,02,27,11.00
2016,04,08,02,28,11.00
2016,04,08,02,29,10.90
2016,04,08,02,30,10.90
2016,04,08,02,31,10.90
2016,04,08,02,32,10.90
2016,04,08,02,33,10.80
2016,04,08,02,34,10.80
2016,04,08,02,35,10.80
2016,04,08,02,36,10.80
2016,04,08,02,37,10.70
2016,04,08,02,38,10.70
2016,04,08,02,39,10.70
2016,04,08,02,40,10.70
2016,04,08,02,41,10.70
2016,04,08,02,42,10.70
2016,04,08,02,43,10.70
2016,04,08,02,44,10.70
2016,04,08,02,45,10.70
2016,04,08,02,46,10.70
2016,04,08,02,47,10.60
2016,04,08,02,48,10.60
2016,04,08,02,49,10.70
2016,04,08,02,50,10.70
2016,04,08,02,51,10.70
2016,04,08,02,52,10.70
2016,04,08,02,53,10.70
2016,04,08,02,54,10.70
2016,04,08,02,55,10.80
2016,04,08,02,56,10.80
2016,04,08,02,57,10.90
2016,04,08,02,58,10.90
2016,04,08,02,59,11.00
2016,04,08,03,00,11.00
2016,04,08,03,01,11.00
2016,04,08,03,02,11.10
2016,04,08,03,03,11.10
2016,04,08,03,04,11.10
2016,04,08,03,05,11.20
2016,04,08,03,06,11.20
2016,04,08,03,07,11.20
2016,04,08,03,08,11.20
2016,04,08,03,09,11.20
2016,04,08,03,10,11.20
2016,04,08,03,11,11.10
2016,04,08,03,12,11.10
2016,04,08,03,13,11.10
2016,04,08,03,14,11.10
2016,04,08,03,15,11.10
2016,04,08,03,16,11.10
2016,04,08,03,17,11.10
2016,04,08,03,18,11.20
2016,04,08,03,19,11.20
2016,04,08,03,20,11.20
2016,04,08,03,21,11.20
2016,04,08,03,22,11.20
2016,04,08,03,23,11.20
2016,04,08,03,24,11.20
2016,04,08,03,25,11.20
2016,04,08,03,26,11.20
2016,04,08,03,27,11.20
2016,04,08,03,28,11.20
2016,04,08,03,29,11.20
2016,04,08,03,30,11.20
2016,04,08,03,31,11.20
2016,04,08,03,32,11.20
2016,04,08,03,33,11.20
2016,04,08,03,34,11.20
2016,04,08,03,35,11.20
2016,04,08,03,36,11.10
2016,04,08,03,37,11.10
2016,04,08,03,38,11.10
2016,04,08,03,39,11.00
2016,04,08,03,40,11.00
2016,04,08,03,41,10.90
2016,04,08,03,42,10.90
2016,04,08,03,43,10.80
2016,04,08,03,44,10.80
2016,04,08,03,45,10.70
2016,04,08,03,46,10.70
2016,04,08,03,47,10.60
2016,04,08,03,48,10.60
2016,04,08,03,49,10.50
2016,04,08,03,50,10.50
2016,04,08,03,51,10.40
2016,04,08,03,52,10.40
2016,04,08,03,53,10.40
2016,04,08,03,54,10.30
2016,04,08,03,55,10.30
2016,04,08,03,56,10.30
2016,04,08,03,57,10.20
2016,04,08,03,58,10.20
2016,04,08,03,59,10.20
2016,04,08,04,00,10.20
2016,04,08,04,01,10.10
2016,04,08,04,02,10.10
2016,04,08,04,03,10.10
2016,04,08,04,04,10.10
2016,04,08,04,05,10.10
2016,04,08,04,06,10.10
2016,04,08,04,07,10.10
2016,04,08,04,08,10.10
2016,04,08,04,09,10.00
2016,04,08,04,10,10.00
2016,04,08,04,11,9.90
2016,04,08,04,12,9.90
2016,04,08,04,13,9.90
2016,04,08,04,14,9.90
2016,04,08,04,15,9.90
2016,04,08,04,16,9.90
2016,04,08,04,17,9.90
2016,04,08,04,18,9.80
2016,04,08,04,19,9.80
2016,04,08,04,20,9.80
2016,04,08,04,21,9.80
2016,04,08,04,22,9.80
2016,04,08,04,23,9.80
2016,04,08,04,24,9.80
2016,04,08,04,25,9.80
2016,04,08,04,26,9.80
2016,04,08,04,27,9.80
2016,04,08,04,28,9.80
2016,04,08,04,29,9.80
2016,04,08,04,30,9.80
2016,04,08,04,31,9.80
2016,04,08,04,32,9.80
2016,04,08,04,33,9.80
2016,04,08,04,34,9.70
2016,04,08,04,35,9.70
2016,04,08,04,36,9.70
2016,04,08,04,37,9.70
2016,04,08,04,38,9.70
2016,04,08,04,39,9.70
2016,04,08,04,40,9.70
2016,04,08,04,41,9.70
2016,04,08,04,42,9.70
2016,04,08,04,43,9.70
2016,04,08,04,44,9.70
2016,04,08,04,45,9.70
2016,04,08,04,46,9.70
2016,04,08,04,47,9.70
2016,04,08,04,48,9.60
2016,04,08,04,49,9.60
2016,04,08,04,50,9.60
2016,04,08,04,51,9.70
2016,04,08,04,52,9.60
2016,04,08,04,53,9.60
2016,04,08,04,54,9.60
2016,04,08,04,55,9.60
2016,04,08,04,56,9.60
2016,04,08,04,57,9.70
2016,04,08,04,58,9.70
2016,04,08,04,59,9.70
2016,04,08,05,00,9.80
2016,04,08,05,01,9.80
2016,04,08,05,02,9.80
2016,04,08,05,03,9.80
2016,04,08,05,04,9.80
2016,04,08,05,05,9.80
2016,04,08,05,06,9.80
2016,04,08,05,07,9.80
2016,04,08,05,08,9.80
2016,04,08,05,09,9.80
2016,04,08,05,10,9.80
2016,04,08,05,11,9.80
2016,04,08,05,12,9.80
2016,04,08,05,13,9.80
2016,04,08,05,14,9.70
2016,04,08,05,15,9.70
2016,04,08,05,16,9.70
2016,04,08,05,17,9.60
2016,04,08,05,18,9.60
2016,04,08,05,19,9.60
2016,04,08,05,20,9.60
2016,04,08,05,21,9.60
2016,04,08,05,22,9.60
2016,04,08,05,23,9.60
2016,04,08,05,24,9.50
2016,04,08,05,25,9.50
2016,04,08,05,26,9.50
2016,04,08,05,27,9.40
2016,04,08,05,28,9.40
2016,04,08,05,29,9.40
2016,04,08,05,30,9.40
2016,04,08,05,31,9.40
2016,04,08,05,32,9.40
2016,04,08,05,33,9.40
2016,04,08,05,34,9.40
2016,04,08,05,35,9.40
2016,04,08,05,36,9.30
2016,04,08,05,37,9.30
2016,04,08,05,38,9.30
2016,04,08,05,39,9.30
2016,04,08,05,40,9.30
2016,04,08,05,41,9.30
2016,04,08,05,42,9.30
2016,04,08,05,43,9.30
2016,04,08,05,44,9.30
2016,04,08,05,45,9.30
2016,04,08,05,46,9.30
2016,04,08,05,47,9.30
2016,04,08,05,48,9.30
2016,04,08,05,49,9.30
2016,04,08,05,50,9.20
2016,04,08,05,51,9.20
2016,04,08,05,52,9.20
2016,04,08,05,53,9.20
2016,04,08,05,54,9.20
2016,04,08,05,55,9.20
2016,04,08,05,56,9.20
2016,04,08,05,57,9.20
2016,04,08,05,58,9.20
2016,04,08,05,59,9.20
2016,04,08,06,00,9.20
2016,04,08,06,01,9.20
2016,04,08,06,02,9.20
2016,04,08,06,03,9.20
2016,04,08,06,04,9.20
2016,04,08,06,05,9.20
2016,04,08,06,06,9.20
2016,04,08,06,07,9.20
2016,04,08,06,08,9.20
2016,04,08,06,09,9.20
2016,04,08,06,10,9.20
2016,04,08,06,11,9.20
2016,04,08,06,12,9.20
2016,04,08,06,13,9.20
2016,04,08,06,14,9.20
2016,04,08,06,15,9.20
2016,04,08,06,16,9.20
2016,04,08,06,17,9.10
2016,04,08,06,18,9.10
2016,04,08,06,19,9.10
2016,04,08,06,20,9.10
2016,04,08,06,21,9.10
2016,04,08,06,22,9.10
2016,04,08,06,23,9.10
2016,04,08,06,24,9.10
2016,04,08,06,25,9.10
2016,04,08,06,26,9.10
2016,04,08,06,27,9.10
2016,04,08,06,28,9.10
2016,04,08,06,29,9.10
2016,04,08,06,30,9.10
2016,04,08,06,31,9.10
2016,04,08,06,32,9.10
2016,04,08,06,33,9.10
2016,04,08,06,34,9.10
2016,04,08,06,35,9.10
2016,04,08,06,36,9.10
2016,04,08,06,37,9.10
2016,04,08,06,38,9.10
2016,04,08,06,39,9.10
2016,04,08,06,40,9.10
2016,04,08,06,41,9.10
2016,04,08,06,42,9.10
2016,04,08,06,43,9.10
2016,04,08,06,44,9.10
2016,04,08,06,45,9.00
2016,04,08,06,46,9.00
2016,04,08,06,47,9.00
2016,04,08,06,48,9.00
2016,04,08,06,49,8.90
2016,04,08,06,50,8.90
2016,04,08,06,51,8.90
2016,04,08,06,52,8.90
2016,04,08,06,53,8.90
2016,04,08,06,54,8.90
2016,04,08,06,55,8.90
2016,04,08,06,56,8.90
2016,04,08,06,57,8.80
2016,04,08,06,58,8.80
2016,04,08,06,59,8.80
2016,04,08,07,00,8.80
2016,04,08,07,01,8.80
2016,04,08,07,02,8.80
2016,04,08,07,03,8.80
2016,04,08,07,04,8.80
2016,04,08,07,05,8.80
2016,04,08,07,06,8.80
2016,04,08,07,07,8.80
2016,04,08,07,08,8.80
2016,04,08,07,09,8.80
2016,04,08,07,10,8.80
2016,04,08,07,11,8.80
2016,04,08,07,12,8.80
2016,04,08,07,13,8.80
2016,04,08,07,14,8.90
2016,04,08,07,15,8.90
2016,04,08,07,16,8.90
2016,04,08,07,17,8.90
2016,04,08,07,18,8.90
2016,04,08,07,19,8.90
2016,04,08,07,20,9.00
2016,04,08,07,21,9.00
2016,04,08,07,22,9.00
2016,04,08,07,23,9.00
2016,04,08,07,24,9.10
2016,04,08,07,25,9.10
2016,04,08,07,26,9.10
2016,04,08,07,27,9.10
2016,04,08,07,28,9.20
2016,04,08,07,29,9.20
2016,04,08,07,30,9.30
2016,04,08,07,31,9.30
2016,04,08,07,32,9.40
2016,04,08,07,33,9.50
2016,04,08,07,34,9.60
2016,04,08,07,35,9.60
2016,04,08,07,36,9.70
2016,04,08,07,37,9.70
2016,04,08,07,38,9.80
2016,04,08,07,39,9.80
2016,04,08,07,40,9.80
2016,04,08,07,41,9.80
2016,04,08,07,42,9.80
2016,04,08,07,43,9.90
2016,04,08,07,44,9.90
2016,04,08,07,45,9.90
2016,04,08,07,46,9.90
2016,04,08,07,47,10.00
2016,04,08,07,48,10.00
2016,04,08,07,49,10.10
2016,04,08,07,50,10.20
2016,04,08,07,51,10.30
2016,04,08,07,52,10.40
2016,04,08,07,53,10.50
2016,04,08,07,54,10.60
2016,04,08,07,55,10.70
2016,04,08,07,56,10.70
2016,04,08,07,57,10.70
2016,04,08,07,58,10.70
2016,04,08,07,59,10.60
2016,04,08,08,00,10.60
2016,04,08,08,01,10.70
2016,04,08,08,02,10.70
2016,04,08,08,03,10.80
2016,04,08,08,04,10.80
2016,04,08,08,05,10.90
2016,04,08,08,06,10.90
2016,04,08,08,07,10.90
2016,04,08,08,08,10.90
2016,04,08,08,09,11.00
2016,04,08,08,10,11.10
2016,04,08,08,11,11.20
2016,04,08,08,12,11.30
2016,04,08,08,13,11.50
2016,04,08,08,14,11.60
2016,04,08,08,15,11.70
2016,04,08,08,16,11.70
2016,04,08,08,17,11.80
2016,04,08,08,18,11.80
2016,04,08,08,19,11.90
2016,04,08,08,20,11.90
2016,04,08,08,21,12.00
2016,04,08,08,22,12.10
2016,04,08,08,23,12.10
2016,04,08,08,24,12.20
2016,04,08,08,25,12.20
2016,04,08,08,26,12.30
2016,04,08,08,27,12.30
2016,04,08,08,28,12.30
2016,04,08,08,29,12.30
2016,04,08,08,30,12.40
2016,04,08,08,31,12.40
2016,04,08,08,32,12.50
2016,04,08,08,33,12.50
2016,04,08,08,34,12.60
2016,04,08,08,35,12.60
2016,04,08,08,36,12.60
2016,04,08,08,37,12.60
2016,04,08,08,38,12.60
2016,04,08,08,39,12.60
2016,04,08,08,40,12.70
2016,04,08,08,41,12.70
2016,04,08,08,42,12.80
2016,04,08,08,43,12.90
2016,04,08,08,44,13.00
2016,04,08,08,45,13.00
2016,04,08,08,46,13.10
2016,04,08,08,47,13.20
2016,04,08,08,48,13.30
2016,04,08,08,49,13.30
2016,04,08,08,50,13.40
2016,04,08,08,51,13.50
2016,04,08,08,52,13.50
2016,04,08,08,53,13.60
2016,04,08,08,54,13.60
2016,04,08,08,55,13.50
2016,04,08,08,56,13.40
2016,04,08,08,57,13.20
2016,04,08,08,58,13.10
2016,04,08,08,59,13.00
2016,04,08,09,00,12.90
2016,04,08,09,01,12.90
2016,04,08,09,02,12.80
2016,04,08,09,03,12.70
2016,04,08,09,04,12.70
2016,04,08,09,05,12.60
2016,04,08,09,06,12.60
2016,04,08,09,07,12.50
2016,04,08,09,08,12.50
2016,04,08,09,09,12.50
2016,04,08,09,10,12.50
2016,04,08,09,11,12.50
2016,04,08,09,12,12.60
2016,04,08,09,13,12.60
2016,04,08,09,14,12.70
2016,04,08,09,15,12.70
2016,04,08,09,16,12.80
2016,04,08,09,17,12.80
2016,04,08,09,18,12.90
2016,04,08,09,19,12.90
2016,04,08,09,20,13.00
2016,04,08,09,21,13.20
2016,04,08,09,22,13.30
2016,04,08,09,23,13.40
2016,04,08,09,24,13.40
2016,04,08,09,25,13.50
2016,04,08,09,26,13.50
2016,04,08,09,27,13.50
2016,04,08,09,28,13.50
2016,04,08,09,29,13.40
2016,04,08,09,30,13.40
2016,04,08,09,31,13.40
2016,04,08,09,32,13.40
2016,04,08,09,33,13.30
2016,04,08,09,34,13.30
2016,04,08,09,35,13.30
2016,04,08,09,36,13.30
2016,04,08,09,37,13.40
2016,04,08,09,38,13.40
2016,04,08,09,39,13.30
2016,04,08,09,40,13.30
2016,04,08,09,41,13.30
2016,04,08,09,42,13.30
2016,04,08,09,43,13.30
2016,04,08,09,44,13.40
2016,04,08,09,45,13.40
2016,04,08,09,46,13.40
2016,04,08,09,47,13.40
2016,04,08,09,48,13.40
2016,04,08,09,49,13.40
2016,04,08,09,50,13.50
2016,04,08,09,51,13.50
2016,04,08,09,52,13.50
2016,04,08,09,53,13.50
2016,04,08,09,54,13.60
2016,04,08,09,55,13.60
2016,04,08,09,56,13.60
2016,04,08,09,57,13.60
2016,04,08,09,58,13.60
2016,04,08,09,59,13.70
2016,04,08,10,00,13.70
2016,04,08,10,01,13.80
2016,04,08,10,02,13.80
2016,04,08,10,03,13.80
2016,04,08,10,04,13.90
2016,04,08,10,05,13.90
2016,04,08,10,06,14.00
2016,04,08,10,07,14.00
2016,04,08,10,08,14.10
2016,04,08,10,09,14.10
2016,04,08,10,10,14.20
2016,04,08,10,11,14.20
2016,04,08,10,12,14.30
2016,04,08,10,13,14.40
2016,04,08,10,14,14.50
2016,04,08,10,15,14.60
2016,04,08,10,16,14.70
2016,04,08,10,17,14.80
2016,04,08,10,18,14.90
2016,04,08,10,19,15.00
2016,04,08,10,20,15.00
2016,04,08,10,21,15.10
2016,04,08,10,22,15.10
2016,04,08,10,23,15.10
2016,04,08,10,24,15.10
2016,04,08,10,25,15.10
2016,04,08,10,26,15.00
2016,04,08,10,27,15.00
2016,04,08,10,28,15.10
2016,04,08,10,29,15.10
2016,04,08,10,30,15.20
2016,04,08,10,31,15.20
2016,04,08,10,32,15.20
2016,04,08,10,33,15.20
2016,04,08,10,34,15.20
2016,04,08,10,35,15.20
2016,04,08,10,36,15.20
2016,04,08,10,37,15.20
2016,04,08,10,38,15.20
2016,04,08,10,39,15.30
2016,04,08,10,40,15.30
2016,04,08,10,41,15.30
2016,04,08,10,42,15.30
2016,04,08,10,43,15.30
2016,04,08,10,44,15.30
2016,04,08,10,45,15.40
2016,04,08,10,46,15.40
2016,04,08,10,47,15.40
2016,04,08,10,48,15.40
2016,04,08,10,49,15.40
2016,04,08,10,50,15.40
2016,04,08,10,51,15.40
2016,04,08,10,52,15.40
2016,04,08,10,53,15.40
2016,04,08,10,54,15.40
2016,04,08,10,55,15.40
2016,04,08,10,56,15.40
2016,04,08,10,57,15.40
2016,04,08,10,58,15.40
2016,04,08,10,59,15.40
2016,04,08,11,00,15.40
2016,04,08,11,01,15.50
2016,04,08,11,02,15.50
2016,04,08,11,03,15.50
2016,04,08,11,04,15.50
2016,04,08,11,05,15.50
2016,04,08,11,06,15.50
2016,04,08,11,07,15.60
2016,04,08,11,08,15.60
2016,04,08,11,09,15.60
2016,04,08,11,10,15.60
2016,04,08,11,11,15.60
2016,04,08,11,12,15.60
2016,04,08,11,13,15.60
2016,04,08,11,14,15.60
2016,04,08,11,15,15.60
2016,04,08,11,16,15.60
2016,04,08,11,17,15.60
2016,04,08,11,18,15.60
2016,04,08,11,19,15.60
2016,04,08,11,20,15.60
2016,04,08,11,21,15.60
2016,04,08,11,22,15.70
2016,04,08,11,23,15.70
2016,04,08,11,24,15.70
2016,04,08,11,25,15.70
2016,04,08,11,26,15.70
2016,04,08,11,27,15.60
2016,04,08,11,28,15.60
2016,04,08,11,29,15.60
2016,04,08,11,30,15.60
2016,04,08,11,31,15.60
2016,04,08,11,32,15.70
2016,04,08,11,33,15.70
2016,04,08,11,34,15.80
2016,04,08,11,35,15.80
2016,04,08,11,36,15.90
2016,04,08,11,37,15.90
2016,04,08,11,38,15.90
2016,04,08,11,39,15.90
2016,04,08,11,40,15.90
2016,04,08,11,41,15.80
2016,04,08,11,42,15.80
2016,04,08,11,43,15.90
2016,04,08,11,44,15.90
2016,04,08,11,45,15.90
2016,04,08,11,46,15.90
2016,04,08,11,47,15.90
2016,04,08,11,48,15.90
2016,04,08,11,49,16.00
2016,04,08,11,50,16.00
2016,04,08,11,51,15.90
2016,04,08,11,52,15.90
2016,04,08,11,53,15.90
2016,04,08,11,54,15.90
2016,04,08,11,55,15.90
2016,04,08,11,56,15.90
2016,04,08,11,57,15.90
2016,04,08,11,58,15.80
2016,04,08,11,59,15.90
2016,04,08,12,00,15.90
2016,04,08,12,01,15.90
2016,04,08,12,02,15.90
2016,04,08,12,03,16.00
2016,04,08,12,04,16.10
2016,04,08,12,05,16.10
2016,04,08,12,06,16.20
2016,04,08,12,07,16.30
2016,04,08,12,08,16.40
2016,04,08,12,09,16.50
2016,04,08,12,10,16.50
2016,04,08,12,11,16.60
2016,04,08,12,12,16.70
2016,04,08,12,13,16.70
2016,04,08,12,14,16.70
2016,04,08,12,15,16.70
2016,04,08,12,16,16.70
2016,04,08,12,17,16.70
2016,04,08,12,18,16.70
2016,04,08,12,19,16.70
2016,04,08,12,20,16.80
2016,04,08,12,21,16.90
2016,04,08,12,22,17.00
2016,04,08,12,23,17.10
2016,04,08,12,24,17.10
2016,04,08,12,25,17.10
2016,04,08,12,26,17.10
2016,04,08,12,27,17.20
2016,04,08,12,28,17.20
2016,04,08,12,29,17.30
2016,04,08,12,30,17.20
2016,04,08,12,31,17.10
2016,04,08,12,32,17.10
2016,04,08,12,33,17.00
2016,04,08,12,34,17.00
2016,04,08,12,35,16.90
2016,04,08,12,36,16.90
2016,04,08,12,37,16.80
2016,04,08,12,38,16.80
2016,04,08,12,39,16.60
2016,04,08,12,40,16.60
2016,04,08,12,41,16.50
2016,04,08,12,42,16.50
2016,04,08,12,43,16.50
2016,04,08,12,44,16.50
2016,04,08,12,45,16.60
2016,04,08,12,46,16.60
2016,04,08,12,47,16.60
2016,04,08,12,48,16.70
2016,04,08,12,49,16.70
2016,04,08,12,50,16.80
2016,04,08,12,51,16.80
2016,04,08,12,52,16.70
2016,04,08,12,53,16.80
2016,04,08,12,54,16.80
2016,04,08,12,55,16.90
2016,04,08,12,56,17.00
2016,04,08,12,57,17.10
2016,04,08,12,58,17.10
2016,04,08,12,59,17.10
2016,04,08,13,00,17.10
2016,04,08,13,01,17.10
2016,04,08,13,02,17.10
2016,04,08,13,03,17.20
2016,04,08,13,04,17.20
2016,04,08,13,05,17.30
2016,04,08,13,06,17.40
2016,04,08,13,07,17.40
2016,04,08,13,08,17.50
2016,04,08,13,09,17.60
2016,04,08,13,10,17.70
2016,04,08,13,11,17.70
2016,04,08,13,12,17.80
2016,04,08,13,13,17.80
2016,04,08,13,14,17.90
2016,04,08,13,15,18.00
2016,04,08,13,16,18.00
2016,04,08,13,17,18.10
2016,04,08,13,18,18.10
2016,04,08,13,19,18.20
2016,04,08,13,20,18.20
2016,04,08,13,21,18.20
2016,04,08,13,22,18.30
2016,04,08,13,23,18.30
2016,04,08,13,24,18.30
2016,04,08,13,25,18.30
2016,04,08,13,26,18.30
2016,04,08,13,27,18.10
2016,04,08,13,28,18.10
2016,04,08,13,29,18.00
2016,04,08,13,30,17.90
2016,04,08,13,31,17.80
2016,04,08,13,32,17.80
2016,04,08,13,33,17.70
2016,04,08,13,34,17.70
2016,04,08,13,35,17.80
2016,04,08,13,36,17.90
2016,04,08,13,37,17.90
2016,04,08,13,38,18.00
2016,04,08,13,39,18.00
2016,04,08,13,40,18.00
2016,04,08,13,41,18.00
2016,04,08,13,42,18.10
2016,04,08,13,43,18.10
2016,04,08,13,44,18.10
2016,04,08,13,45,18.20
2016,04,08,13,46,18.20
2016,04,08,13,47,18.30
2016,04,08,13,48,18.30
2016,04,08,13,49,18.30
2016,04,08,13,50,18.20
2016,04,08,13,51,18.20
2016,04,08,13,52,18.10
2016,04,08,13,53,18.10
2016,04,08,13,54,18.00
2016,04,08,13,55,18.10
2016,04,08,13,56,18.10
2016,04,08,13,57,18.10
2016,04,08,13,58,18.10
2016,04,08,13,59,18.10
2016,04,08,14,00,18.00
2016,04,08,14,01,17.90
2016,04,08,14,02,17.90
2016,04,08,14,03,17.80
2016,04,08,14,04,17.80
2016,04,08,14,05,17.80
2016,04,08,14,06,17.90
2016,04,08,14,07,17.90
2016,04,08,14,08,17.90
2016,04,08,14,09,17.90
2016,04,08,14,10,17.90
2016,04,08,14,11,17.90
2016,04,08,14,12,17.90
2016,04,08,14,13,17.90
2016,04,08,14,14,18.00
2016,04,08,14,15,18.00
2016,04,08,14,16,18.10
2016,04,08,14,17,18.10
2016,04,08,14,18,18.20
2016,04,08,14,19,18.20
2016,04,08,14,20,18.30
2016,04,08,14,21,18.30
2016,04,08,14,22,18.30
2016,04,08,14,23,18.40
2016,04,08,14,24,18.40
2016,04,08,14,25,18.40
2016,04,08,14,26,18.40
2016,04,08,14,27,18.40
2016,04,08,14,28,18.40
2016,04,08,14,29,18.40
2016,04,08,14,30,18.40
2016,04,08,14,31,18.40
2016,04,08,14,32,18.40
2016,04,08,14,33,18.50
2016,04,08,14,34,18.50
2016,04,08,14,35,18.60
2016,04,08,14,36,18.60
2016,04,08,14,37,18.70
2016,04,08,14,38,18.70
2016,04,08,14,39,18.60
2016,04,08,14,40,18.50
2016,04,08,14,41,18.50
2016,04,08,14,42,18.50
2016,04,08,14,43,18.50
2016,04,08,14,44,18.40
2016,04,08,14,45,18.50
2016,04,08,14,46,18.50
2016,04,08,14,47,18.60
2016,04,08,14,48,18.60
2016,04,08,14,49,18.60
2016,04,08,14,50,18.60
2016,04,08,14,51,18.50
2016,04,08,14,52,18.50
2016,04,08,14,53,18.60
2016,04,08,14,54,18.60
2016,04,08,14,55,18.70
2016,04,08,14,56,18.70
2016,04,08,14,57,18.70
2016,04,08,14,58,18.70
2016,04,08,14,59,18.70
2016,04,08,15,00,18.70
2016,04,08,15,01,18.70
2016,04,08,15,02,18.70
2016,04,08,15,03,18.70
2016,04,08,15,04,18.80
2016,04,08,15,05,18.80
2016,04,08,15,06,18.80
2016,04,08,15,07,18.90
2016,04,08,15,08,18.90
2016,04,08,15,09,18.90
2016,04,08,15,10,19.00
2016,04,08,15,11,19.00
2016,04,08,15,12,18.90
2016,04,08,15,13,19.00
2016,04,08,15,14,19.00
2016,04,08,15,15,19.10
2016,04,08,15,16,19.10
2016,04,08,15,17,19.10
2016,04,08,15,18,19.10
2016,04,08,15,19,19.20
2016,04,08,15,20,19.20
2016,04,08,15,21,19.20
2016,04,08,15,22,19.20
2016,04,08,15,23,19.20
2016,04,08,15,24,19.20
2016,04,08,15,25,19.20
2016,04,08,15,26,19.30
2016,04,08,15,27,19.20
2016,04,08,15,28,19.20
2016,04,08,15,29,19.20
2016,04,08,15,30,19.30
2016,04,08,15,31,19.30
2016,04,08,15,32,19.40
2016,04,08,15,33,19.40
2016,04,08,15,34,19.30
2016,04,08,15,35,19.30
2016,04,08,15,36,19.20
2016,04,08,15,37,19.20
2016,04,08,15,38,19.30
2016,04,08,15,39,19.30
2016,04,08,15,40,19.40
2016,04,08,15,41,19.50
2016,04,08,15,42,19.50
2016,04,08,15,43,19.60
2016,04,08,15,44,19.70
2016,04,08,15,45,19.70
2016,04,08,15,46,19.80
2016,04,08,15,47,19.80
2016,04,08,15,48,19.80
2016,04,08,15,49,19.90
2016,04,08,15,50,19.90
2016,04,08,15,51,19.90
2016,04,08,15,52,19.90
2016,04,08,15,53,20.00
2016,04,08,15,54,20.00
2016,04,08,15,55,20.10
2016,04,08,15,56,20.00
2016,04,08,15,57,19.90
2016,04,08,15,58,19.80
2016,04,08,15,59,19.80
2016,04,08,16,00,19.80
2016,04,08,16,01,19.80
2016,04,08,16,02,19.80
2016,04,08,16,03,19.70
2016,04,08,16,04,19.60
2016,04,08,16,05,19.70
2016,04,08,16,06,19.70
2016,04,08,16,07,19.70
2016,04,08,16,08,19.70
2016,04,08,16,09,19.70
2016,04,08,16,10,19.80
2016,04,08,16,11,19.80
2016,04,08,16,12,19.90
2016,04,08,16,13,20.00
2016,04,08,16,14,20.00
2016,04,08,16,15,20.00
2016,04,08,16,16,20.00
2016,04,08,16,17,19.90
2016,04,08,16,18,19.90
2016,04,08,16,19,19.90
2016,04,08,16,20,19.90
2016,04,08,16,21,19.90
2016,04,08,16,22,19.90
2016,04,08,16,23,20.00
2016,04,08,16,24,20.00
2016,04,08,16,25,20.10
2016,04,08,16,26,20.10
2016,04,08,16,27,20.10
2016,04,08,16,28,20.20
2016,04,08,16,29,20.20
2016,04,08,16,30,20.20
2016,04,08,16,31,20.20
2016,04,08,16,32,20.20
2016,04,08,16,33,20.30
2016,04,08,16,34,20.20
2016,04,08,16,35,20.20
2016,04,08,16,36,20.20
2016,04,08,16,37,20.30
2016,04,08,16,38,20.30
2016,04,08,16,39,20.40
2016,04,08,16,40,20.40
2016,04,08,16,41,20.50
2016,04,08,16,42,20.50
2016,04,08,16,43,20.60
2016,04,08,16,44,20.70
2016,04,08,16,45,20.70
2016,04,08,16,46,20.80
2016,04,08,16,47,20.80
2016,04,08,16,48,20.80
2016,04,08,16,49,20.80
2016,04,08,16,50,20.80
2016,04,08,16,51,20.80
2016,04,08,16,52,20.80
2016,04,08,16,53,20.80
2016,04,08,16,54,20.80
2016,04,08,16,55,20.80
2016,04,08,16,56,20.80
2016,04,08,16,57,20.90
2016,04,08,16,58,20.90
2016,04,08,16,59,20.90
2016,04,08,17,00,20.80
2016,04,08,17,01,20.80
2016,04,08,17,02,20.70
2016,04,08,17,03,20.70
2016,04,08,17,04,20.70
2016,04,08,17,05,20.60
2016,04,08,17,06,20.60
2016,04,08,17,07,20.60
2016,04,08,17,08,20.60
2016,04,08,17,09,20.60
2016,04,08,17,10,20.60
2016,04,08,17,11,20.60
2016,04,08,17,12,20.60
2016,04,08,17,13,20.70
2016,04,08,17,14,20.70
2016,04,08,17,15,20.80
2016,04,08,17,16,20.80
2016,04,08,17,17,20.80
2016,04,08,17,18,20.90
2016,04,08,17,19,20.90
2016,04,08,17,20,20.90
2016,04,08,17,21,20.90
2016,04,08,17,22,20.80
2016,04,08,17,23,20.80
2016,04,08,17,24,20.90
2016,04,08,17,25,20.90
2016,04,08,17,26,20.90
2016,04,08,17,27,20.90
2016,04,08,17,28,20.90